Weather Roundup
Issued by NWS

Home | Current Version | Previous Version | Graphics & Text | Print | Product List | Glossary Off
Versions: 1 2 3 4 5 6 7 8 9 10 11 12 13 14 15 16 17 18 19 20 21 22 23 24 25 26 27 28 29 30 31 32 33 34 35 36 37 38 39 40 41 42 43 44 45 46 47 48 49 50

000
NZUS93 KARX 311510
HRRWXR

CURRENT HOURLY OBSERVATIONS ACROSS
MUCH OF THE UPPER MISSISSIPPI VALLEY
NATIONAL WEATHER SERVICE LA CROSSE WI
1000 AM CDT FRI JUL 31 2015


...SOUTHEAST MINNESOTA...


CITY           SKY/WX    TMP DP  RH WIND       PRES   REMARKS
ROCHESTER      SUNNY     72  57  59 NW16      30.11S
ROCHESTER/MAYO FAIR      73  52  49 W15G22    30.10S
WINONA         SUNNY     73  54  49 NW9       30.06S
AUSTIN         SUNNY     75  55  50 NW10      30.11S
ALBERT LEA     SUNNY     73  59  60 NW6       30.13S
DODGE CENTER   SUNNY     72  55  56 NW10G16   30.11S
PRESTON        SUNNY     71  55  56 NW12G18   30.11S
OWATONNA       SUNNY     73  55  53 NW13      30.12S
FARIBAULT      SUNNY     73  57  56 W9        30.11F
$$

...ELSEWHERE IN MINNESOTA...


CITY           SKY/WX    TMP DP  RH WIND       PRES   REMARKS
MINNEAPOLIS    SUNNY     75  53  46 NW13G23   30.08S
INTNL FALLS    MOSUNNY   68  58  70 W10       29.95F
DULUTH         SUNNY     70  54  56 NW15G22   29.98S
RED WING       SUNNY     75  55  50 NW10G16   30.05F
REDWOOD FALLS  SUNNY     74  58  57 W7        30.13S
MANKATO        SUNNY     73  54  49 NW12      30.12S
WORTHINGTON    SUNNY     72  57  60 N5        30.17F
FAIRMONT       PTSUNNY   73  55  53 NW5       30.15S
$$

...SOUTHWEST WISCONSIN...


CITY           SKY/WX    TMP DP  RH WIND       PRES   REMARKS
LA CROSSE      SUNNY     77  55  46 NW13      30.05R
PRAIRIE DU CHI SUNNY     79  52  39 W8        30.06S
BOSCOBEL       SUNNY     80  58  46 NW7       30.05S
LONE ROCK      SUNNY     79  57  46 NW13      30.04S
PLATTEVILLE    SUNNY     77  64  64 W13       30.07S
FORT MC COY    SUNNY     75  54  47 NW12      30.05S
CAMP DOUGLAS   SUNNY     75  59  57 W16G23    30.02S
VIROQUA        FAIR      73  55  54 NW13      30.07S
WIS DELLS      SUNNY     77  48  35 W14G24    30.02S
$$

...ELSEWHERE IN WISCONSIN...


CITY           SKY/WX    TMP DP  RH WIND       PRES   REMARKS
MILWAUKEE      MOSUNNY   82  57  42 W14G22    29.97F
MADISON        SUNNY     77  59  53 W13G18    30.01S
GREEN BAY      SUNNY     76  61  59 W13       29.91F
EAU CLAIRE     SUNNY     74  54  49 NW14G23   30.02F
BLACK RVR FLS  FAIR      76  53  44 W8G23     30.03S
MEDFORD        SUNNY     69  56  62 NW13G28   30.00S
WAUSAU         SUNNY     74  54  49 NW14      29.96S
WIS RAPIDS     SUNNY     75  51  43 NW20G26   30.00S
MARSHFIELD     SUNNY     73  53  49 NW16G25   30.01S
RICE LAKE      SUNNY     70  55  59 W12       30.04S
$$

...NORTHEAST IOWA...


CITY           SKY/WX    TMP DP  RH WIND       PRES   REMARKS
DECORAH        SUNNY     73  55  53 NW8       30.09S
MASON CITY     SUNNY     76  60  57 NW8       30.14S
CHARLES CITY   SUNNY     73  61  64 NW7G14    30.12F
OELWEIN        SUNNY     75  64  69 NW9       30.11F
$$

...ELSEWHERE IN IOWA...


CITY           SKY/WX    TMP DP  RH WIND       PRES   REMARKS
DES MOINES     MOSUNNY   80  67  64 W5        30.12F
IOWA CITY      SUNNY     80  65  59 NW6       30.11S
FORT DODGE     MOSUNNY   77  66  69 CALM      30.15S
$$

...NORTHERN ILLINOIS...


CITY           SKY/WX    TMP DP  RH WIND       PRES   REMARKS
CHICAGO-OHARE  MOSUNNY   79  63  57 NW16      30.00F
CHICAGO-MIDWAY MOSUNNY   81  63  54 W12       30.00F
MOLINE         SUNNY     80  66  62 NW8       30.08S
ROCKFORD       MOSUNNY   80  62  54 NW12      30.04F
PEORIA         SUNNY     84  67  56 NW6       30.08F
$$

NOTE: "FAIR" INDICATES FEW OR NO CLOUDS BELOW 12,000 FEET WITH NO
SIGNIFICANT WEATHER AND/OR OBSTRUCTIONS TO VISIBILITY. WIND
SPEEDS ARE IN MILES-PER-HOUR.



USA.gov is the U.S. government's official web portal to all federal, state and local government web resources and services.